Location: ???????
(55.4362°N, 38.1183°E)
Time: 14:13:32
(UTC+00:00)

Oscar 11 - Pass Details

Date: 10 December 2021
Orbit: 611 x 625 km, 97.6° (Epoch: 25 January)

Event Time Altitude Azimuth Distance (km) Brightness Sun altitude
Rises 03:20:49 0° 13° (NNE) 2,921 10.5 -18.6°
Reaches altitude 10° 03:23:02 10° 12° (NNE) 2,007 9.7 -18.3°
Maximum altitude 03:27:23 75° 288° (WNW) 650 6.9 -17.7°
Drops below altitude 10° 03:31:42 10° 203° (SSW) 1,983 9.6 -17.1°
Sets 03:33:52 0° 202° (SSW) 2,882 10.4 -16.8°
